Location: Cahoon Acres
(40.8736°N, 111.8994°W)
Time: 22:15:43
(UTC+00:00)

Vanguard 2 Rocket - Visible Passes

Search period start: 25 May 2020 00:00
Search period end: 04 June 2020 00:00
Orbit: 555 x 3325 km, 32.9° (Epoch: 24 May)

Date Brightness Start Highest point End Pass type
(mag) Time Alt. Az. Time Alt. Az. Time Alt. Az.
25 May 9.8 04:42:40 10° W 04:59:30 51° SSW 05:11:48 26° SSE visible
25 May 10.2 07:01:08 10° W 07:15:32 26° SW 07:17:32 25° SW visible
26 May 9.7 03:42:00 10° W 03:57:41 57° SSW 04:14:53 16° SE visible
26 May 10.0 05:58:35 10° W 06:14:24 34° SW 06:20:37 29° S visible
27 May 9.9 04:57:04 10° W 05:12:58 42° SSW 05:23:45 26° SSE visible
27 May 10.5 07:17:44 10° W 07:28:31 17° SW 07:29:30 17° SW visible
28 May 9.8 03:56:16 10° W 04:11:21 49° SSW 04:26:55 17° SE visible
28 May 10.3 06:13:55 10° W 06:27:35 25° SW 06:32:40 23° SSW visible
29 May 9.7 02:56:01 10° W 03:09:47 55° SSW 03:28:59 10° SE visible
29 May 10.2 05:11:50 10° W 05:26:22 33° SW 05:35:53 23° S visible
30 May 10.0 04:10:45 10° W 04:24:59 40° SSW 04:39:09 17° SSE visible
30 May 10.5 06:30:47 10° WSW 06:40:47 17° SW 06:44:55 15° SSW visible
31 May 9.8 03:10:21 10° W 03:23:33 46° SSW 03:41:52 10° SE visible
31 May 10.4 05:27:20 10° W 05:39:45 24° SW 05:48:14 18° S visible
01 Jun 10.2 04:25:39 10° W 04:38:33 30° SSW 04:51:37 15° SSE visible
02 Jun 10.0 03:24:55 10° W 03:37:19 37° SSW 03:54:10 10° SSE visible
02 Jun 10.7 05:44:37 10° WSW 05:53:12 15° SW 06:00:48 12° SSW visible
03 Jun 10.5 04:41:23 10° WSW 04:52:10 21° SW 05:04:16 11° S visible
